Time,TemperatureF,DewpointF,PressureIn,WindDirection,WindDirectionDegrees,WindSpeedMPH,WindSpeedGustMPH,Humidity,HourlyPrecipIn,Conditions,Clouds,dailyrainin,SoftwareType,DateUTC
2013-07-12 01:01:00,79.0,61.0,29.92,North,350,5.0,-999.0,54,-99.99,,,-99.99,,2013-07-12 05:01:00,
2013-07-12 01:11:00,79.0,61.0,29.92,North,350,6.0,-999.0,54,-99.99,,,-99.99,,2013-07-12 05:11:00,
2013-07-12 01:22:00,79.0,63.0,29.93,North,360,5.0,-999.0,57,-99.99,,,-99.99,,2013-07-12 05:22:00,
2013-07-12 01:42:00,79.0,63.0,29.93,North,360,6.0,-999.0,57,-99.99,,,-99.99,,2013-07-12 05:42:00,
2013-07-12 02:01:00,79.0,61.0,29.93,NE,40,8.0,-999.0,54,-99.99,,,-99.99,,2013-07-12 06:01:00,
2013-07-12 02:42:00,79.0,61.0,29.93,NNE,20,9.0,-999.0,54,-99.99,,,-99.99,,2013-07-12 06:42:00,
2013-07-12 03:02:00,77.0,61.0,29.93,NNE,30,6.0,-999.0,57,-99.99,,,-99.99,,2013-07-12 07:02:00,
2013-07-12 03:43:00,75.0,61.0,29.94,North,350,5.0,-999.0,60,-99.99,,,-99.99,,2013-07-12 07:43:00,
2013-07-12 04:11:00,75.0,61.0,29.94,North,10,7.0,-999.0,60,-99.99,,,-99.99,,2013-07-12 08:11:00,
2013-07-12 04:42:00,75.0,63.0,29.95,North,360,7.0,-999.0,64,-99.99,,,-99.99,,2013-07-12 08:42:00,
2013-07-12 05:13:00,75.0,63.0,29.96,North,10,7.0,-999.0,64,-99.99,,,-99.99,,2013-07-12 09:13:00,
2013-07-12 05:42:00,75.0,63.0,29.96,North,10,7.0,-999.0,64,-99.99,,,-99.99,,2013-07-12 09:42:00,
2013-07-12 07:11:00,75.0,63.0,29.99,NNE,20,9.0,-999.0,64,-99.99,,,-99.99,,2013-07-12 11:11:00,
2013-07-12 08:43:00,75.0,63.0,30.00,NNE,20,13.0,17.0,64,-99.99,,,-99.99,,2013-07-12 12:43:00,
2013-07-12 08:52:00,75.0,63.0,30.00,NNE,20,9.0,17.0,64,-99.99,,,-99.99,,2013-07-12 12:52:00,
2013-07-12 09:12:00,77.0,63.0,30.00,NNE,20,12.0,-999.0,61,-99.99,,,-99.99,,2013-07-12 13:12:00,
2013-07-12 10:12:00,81.0,63.0,30.01,NNE,30,8.0,-999.0,54,-99.99,,,-99.99,,2013-07-12 14:12:00,
2013-07-12 12:11:00,79.0,64.0,30.03,ENE,70,14.0,17.0,61,-99.99,,,-99.99,,2013-07-12 16:11:00,
2013-07-12 13:14:00,79.0,64.0,30.04,ENE,70,14.0,-999.0,61,-99.99,,,-99.99,,2013-07-12 17:14:00,
2013-07-12 13:42:00,79.0,66.0,30.04,ENE,70,14.0,-999.0,65,-99.99,,,-99.99,,2013-07-12 17:42:00,
2013-07-12 15:11:00,79.0,66.0,30.03,NNE,30,14.0,17.0,65,-99.99,,,-99.99,,2013-07-12 19:11:00,
2013-07-12 16:14:00,75.0,70.0,30.02,ENE,60,14.0,18.0,83,-99.99,,,-99.99,,2013-07-12 20:14:00,
2013-07-12 17:11:00,77.0,68.0,30.03,NE,40,15.0,20.0,73,-99.99,,,-99.99,,2013-07-12 21:11:00,
2013-07-12 18:17:00,73.0,70.0,30.04,ESE,110,5.0,-999.0,88,-99.99,,,-99.99,,2013-07-12 22:17:00,
2013-07-12 19:42:00,72.0,72.0,30.05,ESE,110,3.0,-999.0,100,0.01,,,-99.99,,2013-07-12 23:42:00,
2013-07-12 19:52:00,72.0,72.0,30.05,East,100,8.0,-999.0,100,0.01,,,-99.99,,2013-07-12 23:52:00,
2013-07-12 20:11:00,72.0,72.0,30.05,East,100,8.0,-999.0,100,0.01,,,-99.99,,2013-07-13 00:11:00,
2013-07-12 20:42:00,73.0,70.0,30.05,East,80,14.0,18.0,88,-99.99,,,-99.99,,2013-07-13 00:42:00,
2013-07-12 21:42:00,72.0,70.0,30.07,ENE,60,15.0,25.0,94,-99.99,,,-99.99,,2013-07-13 01:42:00,
2013-07-12 22:07:00,72.0,70.0,30.08,ENE,60,16.0,23.0,94,-99.99,,,-99.99,,2013-07-13 02:07:00,